Regional Weather Roundup
Issued by NWS

Home | Current Version | Previous Version | Graphics & Text | Print | Product List | Glossary On
Versions: 1 2 3 4 5 6 7 8 9 10 11 12 13 14 15 16 17 18 19 20 21 22 23 24 25 26 27 28 29 30 31 32 33 34 35 36 37 38 39 40 41 42 43 44 45 46 47 48 49 50
000
ASUS45 KPSR 020200
RWRAZ

PRELIMINARY ARIZONA REGIONAL HOURLY WEATHER ROUNDUP
NATIONAL WEATHER SERVICE PHOENIX AZ
700 PM MST SUN MAR 01 2015

NOTE: FAIR INDICATES FEW OR NO CLOUDS BELOW 12,000 FEET WITH NO
SIGNIFICANT WEATHER AND/OR OBSTRUCTIONS TO VISIBILITY.

AZZ001>003-036-020300-
NORTHWEST ARIZONA

CITY           SKY/WX    TMP DP  RH WIND       PRES   REMARKS
KINGMAN        LGT RAIN  43  41  93 N9        29.94S
$$

AZZ004>008-015-016-018-020300-
NORTH CENTRAL ARIZONA

CITY           SKY/WX    TMP DP  RH WIND       PRES   REMARKS
GRAND CANYON   LGT SNOW  34  32  92 E3        29.97F VSB 3/4
PRESCOTT       CLOUDY    47  41  80 SE6       29.97R
FLAGSTAFF      LGT RAIN  39  36  89 SW15G26   30.00R WCI  31
PAYSON         CLOUDY    50  43  76 VRB6G14   30.04R
PAGE           LGT RAIN  37  33  85 SW3       30.03F
$$

AZZ009>014-017-020300-
NORTHEAST ARIZONA

CITY           SKY/WX    TMP DP  RH WIND       PRES   REMARKS
WINSLOW        NOT AVBL
SAINT JOHNS    PTCLDY    52  29  41 SW5       30.02R
WINDOW ROCK    MOCLDY    45  35  68 CALM      30.06R
$$

AZZ023-020300-
GREATER PHOENIX AREA

CITY           SKY/WX    TMP DP  RH WIND       PRES   REMARKS
PHOENIX        MOCLDY    72  44  36 S7        29.87R
GLENDALE       MOCLDY    72  45  37 S7        29.89R
DEER VALLEY    MOCLDY    69  44  40 S8        29.88R
SCOTTSDALE     PTCLDY    70  44  39 S6        29.91R
MESA-FALCON    MOCLDY    70  43  37 S9        29.89R
MESA-GATEWAY   MOCLDY    70  45  40 VRB5      29.92R
CHANDLER       MOCLDY    70  45  40 SW10      29.89R
$$

AZZ027-028-020300-
SOUTHWEST MARICOPA COUNTY AND PINAL COUNTY

CITY           SKY/WX    TMP DP  RH WIND       PRES   REMARKS
CASA GRANDE    MOCLDY    70  45  40 S8        29.90S
GILA BEND      CLEAR     69  48  46 SW13      29.90R
$$

AZZ503-504-507>509-020300-
SOUTHEAST ARIZONA

CITY           SKY/WX    TMP DP  RH WIND       PRES   REMARKS
TUCSON         MOCLDY    69  42  37 SW7       29.98R
DAVIS-MONTHAN  PTCLDY    67  43  41 SW10      29.96R
RYAN FIELD       N/A     68  45  42 SW8       29.97R
NOGALES        MOCLDY    60  34  37 S13       30.02R
SIERRA VISTA   MOCLDY    60  28  29 S6G17     30.04R
SAFFORD        MOCLDY    69  29  22 SW12      29.93R
$$

AZZ020-021-025-026-031-020300-
SOUTHWEST ARIZONA

CITY           SKY/WX    TMP DP  RH WIND       PRES   REMARKS
YUMA           NOT AVBL
$$

CAZ031-033-041-043-047-048-061-020300-
SOUTHERN CALIFORNIA

CITY           SKY/WX    TMP DP  RH WIND       PRES   REMARKS
DOWNTOWN L.A.  CLOUDY    57  48  72 CALM      29.91R
L.A. AIRPORT   MOCLDY    57  46  66 S12G20    29.91R
SAN DIEGO      LGT RAIN  56  48  74 E6        29.92F
BURBANK        LGT RAIN  53  45  74 S6        29.92R
ONTARIO        MOCLDY    54  41  61 E7        29.91R
RIVERSIDE      CLOUDY    54  43  66 S6        29.92R
PALM SPRINGS   LGT RAIN  52  48  86 N3        29.98S
EL CENTRO NAS  CLOUDY    54  50  86 NW7       29.95S
IMPERIAL       LGT RAIN  53  51  93 NW6       29.95R
BLYTHE         LGT RAIN  53  51  93 NW8       29.95R
$$

NVZ020-UTZ003-020300-
SOUTHERN NEVADA-UTAH

CITY           SKY/WX    TMP DP  RH WIND       PRES   REMARKS
LAS VEGAS      NOT AVBL
SALT LAKE CITY CLOUDY    41  29  62 W5        29.98F
$$

NMZ009-TXZ055-020300-
NEW MEXICO-WEST TEXAS

CITY           SKY/WX    TMP DP  RH WIND       PRES   REMARKS
ALBUQUERQUE    PTCLDY    56  30  37 S15       30.03R
EL PASO        MOCLDY    68  14  12 NW5       30.03R
$$


........................KEY........................
SKY/WX - SKY CONDITION/WEATHER
TMP    - TEMPERATURE IN FAHRENHEIT
DP     - DEW POINT IN FAHRENHEIT
RH     - RELATIVE HUMIDITY IN PERCENT
WIND   - DIRECTION AND SPEED IN MILES PER HOUR (MPH)
VRB    - VARIABLE WIND DIRECTION
PRES   - MEAN SEA LEVEL PRESSURE IN INCHES OF MERCURY
         F - FALLING PRESSURE   R - RISING PRESSURE
         S - STEADY PRESSURE
VSB    - VISIBILITY IN MILES
HX     - HEAT INDEX IN FAHRENHEIT
WCI    - WIND CHILL INDEX IN FAHRENHEIT
TC     - TEMPERATURE IN CELSIUS WHICH IS ALSO KNOWN AS
         TEMPERATURE IN CENTIGRADE
AFB    - AIR FORCE BASE
         LUKE AFB IS LUKE AIR FORCE BASE
         DAVIS-MONTHAN IS DAVIS-MONTHAN AIR FORCE BASE
NAS    - NAVAL AIR STATION
         EL CENTRO NAS IS EL CENTRO NAVAL AIR STATION
N/A    - NOT AVAILABLE



USA.gov is the U.S. government's official web portal to all federal, state and local government web resources and services.